Location: Archemont
(49.1579°N, 1.7598°E)
Time: 07:18:24
(UTC+00:00)

S-56A Canister/Altair - Pass Details

Date: 20 April 2024
Orbit: 638 x 2488 km, 38.9° (Epoch: 18 May)

Event Time Altitude Azimuth Distance (km) Brightness Sun altitude
Rises 23:01:07 0° 268° (W) 4,473 11.6 -27.9°
Reaches altitude 10° 23:05:16 10° 249° (WSW) 3,834 11.0 -28.0°
Enters shadow 23:09:04 16° 227° (SW) 3,653 10.7 -28.2°
Maximum altitude 23:11:04 17° 215° (SW) 3,729 - -28.2°
Drops below altitude 10° 23:17:56 10° 181° (S) 4,670 - -28.4°
Sets 23:24:00 0° 165° (SSE) 5,940 - -28.6°
